EW1708 Weather Reports


time (UTC)temp
C
wind
direction
speed
KPH
gust
KPH
rain 1hr
cm
rain 24hr
cm
rain mn
cm
humidity
%
barometer
mb
20260906212838 25 57 33.8 49.9 0.00 0.00 0.00 72 1012.9
20260906211845 25 71 37.0 54.7 0.00 0.00 0.00 73 1012.9
20260906204555 26 74 30.6 41.8 0.00 0.00 0.00 70 1012.9
20260906203556 26 49 27.4 43.5 0.00 0.00 0.00 70 1012.7
20260906202538 26 43 27.4 43.5 0.00 0.00 0.00 69 1012.6
20260906201540 26 51 24.1 37.0 0.00 0.00 0.00 70 1012.6
20260906200543 26 37 25.7 35.4 0.00 0.00 0.00 71 1012.6
20260906195557 26 40 20.9 33.8 0.00 0.00 0.00 72 1012.6
20260906194553 26 34 22.5 35.4 0.00 0.00 0.00 70 1012.8
20260906193521 26 37 24.1 35.4 0.00 0.00 0.00 71 1012.8
20260906192536 27 39 16.1 30.6 0.00 0.00 0.00 70 1012.7
20260906191557 27 52 17.7 27.4 0.00 0.00 0.00 71 1012.7
20260906190611 27 40 12.9 27.4 0.00 0.00 0.00 71 1012.9
20260906185604 27 83 9.7 19.3 0.00 0.00 0.00 71 1013.0
20260906184618 27 53 11.3 19.3 0.00 0.00 0.00 71 1013.2
20260906183559 27 57 11.3 20.9 0.00 0.00 0.00 72 1013.2
20260906182622 27 66 11.3 20.9 0.00 0.00 0.00 73 1013.3
20260906181645 27 92 9.7 17.7 0.00 0.00 0.00 71 1013.3
20260906180627 27 98 11.3 22.5 0.00 0.00 0.00 72 1013.3
20260906175643 26 101 14.5 22.5 0.00 0.00 0.00 75 1013.2
20260906174651 26 61 12.9 27.4 0.00 0.00 0.00 77 1013.4
20260906173647 25 123 19.3 30.6 0.00 0.00 0.00 80 1013.4
20260906172708 25 83 19.3 30.6 0.00 0.00 0.00 81 1013.3
20260906171650 24 115 17.7 29.0 0.00 0.00 0.00 83 1013.4
20260906170643 23 105 16.1 29.0 0.00 0.00 0.00 84 1013.6
20260906165630 22 106 17.7 29.0 0.00 0.00 0.00 86 1013.6
20260906164633 22 92 16.1 24.1 0.00 0.00 0.00 87 1013.8
20260906162437 22 94 11.3 22.5 0.00 0.00 0.00 89 1014.4
20260906161403 21 106 14.5 22.5 0.00 0.00 0.00 89 1014.5
20260906155241 21 90 12.9 20.9 0.00 0.00 0.00 89 1014.7
20260906154236 21 96 14.5 22.5 0.00 0.00 0.00 90 1014.7
20260906153216 21 95 12.9 24.1 0.00 0.00 0.00 90 1014.5
20260906152212 21 78 11.3 24.1 0.00 0.00 0.00 91 1014.5
20260906151202 21 103 12.9 24.1 0.00 0.00 0.00 91 1014.4
20260906150145 21 128 11.3 25.7 0.00 0.00 0.00 91 1014.6
20260906145146 20 116 14.5 25.7 0.00 0.00 0.00 92 1014.9
20260906144204 20 117 11.3 19.3 0.00 0.00 0.00 92 1015.0
20260906143156 20 78 9.7 16.1 0.00 0.00 0.00 93 1015.3
20260906142138 20 88 8.0 14.5 0.00 0.00 0.00 93 1015.3
20260906141136 20 72 4.8 12.9 0.00 0.00 0.00 94 1015.5
20260906140145 19 57 6.4 12.9 0.00 0.00 0.00 94 1015.4
20260906135139 19 55 8.0 12.9 0.00 0.00 0.00 93 1015.2
20260906134148 19 56 8.0 11.3 0.00 0.00 0.00 93 1015.1
20260906132028 19 48 0.0 0.0 0.00 0.00 0.00 94 1015.9
20260906125846 19 55 4.8 9.7 0.00 0.00 0.00 94 1015.5
20260906122524 19 106 11.3 20.9 0.00 0.00 0.00 94 1014.4
20260906121527 19 92 11.3 20.9 0.00 0.00 0.00 93 1014.2
20260906120454 18 88 11.3 20.9 0.00 0.00 0.00 93 1014.0
20260906115431 18 94 12.9 20.9 0.00 0.00 0.00 93 1014.0
20260906113225 18 81 9.7 14.5 0.00 0.00 0.00 92 1014.3
20260906112249 18 78 9.7 16.1 0.00 0.00 0.00 92 1014.5
20260906111308 18 78 9.7 17.7 0.00 0.00 0.00 92 1014.5
20260906110309 18 78 9.7 17.7 0.00 0.00 0.00 92 1014.6
20260906105316 18 76 11.3 17.7 0.00 0.00 0.00 92 1014.7
20260906104251 18 63 9.7 14.5 0.00 0.00 0.00 92 1014.6
20260906103252 18 74 8.0 14.5 0.00 0.00 0.00 92 1014.7
20260906102245 18 73 8.0 14.5 0.00 0.00 0.00 92 1014.8
20260906101214 19 72 8.0 12.9 0.00 0.00 0.00 92 1014.7
20260906100148 19 65 6.4 12.9 0.00 0.00 0.00 92 1014.9
20260906095212 19 65 4.8 9.7 0.00 0.00 0.00 92 1014.9
20260906094154 19 69 4.8 9.7 0.00 0.00 0.00 91 1015.0
20260906093157 20 71 6.4 9.7 0.00 0.00 0.00 91 1015.0
20260906092212 20 67 6.4 11.3 0.00 0.00 0.00 90 1015.0
20260906091201 20 73 4.8 14.5 0.00 0.00 0.00 90 1015.0
20260906090202 20 78 6.4 14.5 0.00 0.00 0.00 90 1015.0
20260906085157 20 72 6.4 11.3 0.00 0.00 0.00 90 1015.0
20260906084219 20 83 4.8 9.7 0.00 0.00 0.00 90 1015.1
20260906083220 20 78 1.6 6.4 0.00 0.00 0.00 90 1015.2
20260906082221 20 78 3.2 8.0 0.00 0.00 0.00 90 1015.3
20260906081242 20 77 3.2 8.0 0.00 0.00 0.00 90 1015.4
20260906080220 20 78 3.2 6.4 0.00 0.00 0.00 91 1015.6
20260906075213 20 76 3.2 6.4 0.00 0.00 0.00 92 1015.7
20260906074231 20 76 3.2 6.4 0.00 0.00 0.00 92 1015.7
20260906073206 20 76 3.2 8.0 0.00 0.00 0.00 93 1015.8
20260906071052 19 74 3.2 6.4 0.00 0.00 0.00 93 1015.8
20260906070032 19 74 3.2 6.4 0.00 0.00 0.00 92 1015.9
20260906065051 19 74 1.6 4.8 0.00 0.00 0.00 91 1015.8
20260906064110 19 74 3.2 4.8 0.00 0.00 0.00 90 1015.8
20260906063131 20 74 3.2 4.8 0.00 0.03 0.00 90 1015.9
20260906062058 20 74 3.2 9.7 0.00 0.08 0.00 90 1015.9
20260906061026 20 74 4.8 9.7 0.00 0.08 0.00 88 1015.8
20260906060022 20 75 6.4 11.3 0.00 0.08 0.00 88 1015.7
20260906055038 20 82 8.0 11.3 0.00 0.08 0.08 88 1015.7
20260906054042 21 79 6.4 11.3 0.00 0.08 0.08 88 1015.6
20260906053021 21 83 4.8 9.7 0.00 0.08 0.08 88 1015.5
20260906052044 21 83 4.8 11.3 0.00 0.08 0.08 88 1015.5
20260906051040 21 83 6.4 11.3 0.00 0.08 0.08 87 1015.5
20260906050036 22 91 6.4 11.3 0.00 0.08 0.08 86 1015.4
20260906045015 22 90 8.0 14.5 0.00 0.08 0.08 86 1015.6
20260906042921 22 80 6.4 12.9 0.00 0.08 0.08 84 1015.5
20260906041931 23 80 9.7 12.9 0.00 0.08 0.08 84 1015.5
20260906040941 22 84 8.0 12.9 0.00 0.08 0.08 85 1015.6
20260906035914 22 76 4.8 11.3 0.00 0.08 0.08 85 1015.5
20260906034936 22 71 4.8 9.7 0.00 0.08 0.08 85 1015.5
20260906033925 22 67 6.4 12.9 0.00 0.08 0.08 84 1015.4
20260906032903 22 62 9.7 12.9 0.00 0.08 0.08 84 1015.4
20260906030741 23 61 9.7 14.5 0.00 0.08 0.08 82 1015.4
20260906025732 23 59 11.3 14.5 0.00 0.08 0.08 81 1015.3
20260906024742 23 65 9.7 12.9 0.00 0.08 0.08 81 1015.4
20260906022629 23 60 11.3 17.7 0.00 0.08 0.08 81 1015.0
20260906021608 23 57 9.7 16.1 0.00 0.08 0.08 80 1014.8
20260906020547 23 57 8.0 11.3 0.00 0.08 0.08 81 1014.9
20260906015520 23 54 6.4 9.7 0.00 0.08 0.08 81 1014.7
20260906014540 23 59 4.8 9.7 0.00 0.08 0.08 80 1014.6
20260906013517 24 59 4.8 9.7 0.00 0.08 0.08 79 1014.6
20260906012513 24 63 4.8 6.4 0.00 0.08 0.08 78 1014.5
20260906011454 25 67 3.2 4.8 0.00 0.08 0.08 78 1014.4
20260906005323 25 67 1.6 3.2 0.00 0.08 0.08 76 1014.2
20260906004311 25 67 0.0 1.6 0.00 0.08 0.08 77 1014.2
20260906003241 25 67 0.0 3.2 0.00 0.08 0.08 77 1014.2
20260906002249 25 67 1.6 3.2 0.00 0.08 0.08 76 1014.1
20260905232759 26 77 0.0 0.0 0.00 0.08 0.08 73 1014.0
20260905231745 26 77 0.0 0.0 0.00 0.08 0.08 73 1014.0
20260905225543 26 77 0.0 0.0 0.00 0.08 0.08 74 1013.9
20260905224555 26 82 1.6 3.2 0.00 0.08 0.08 71 1013.7
20260905223523 26 82 3.2 3.2 0.00 0.08 0.08 69 1013.6
20260905221423 26 135 0.0 0.0 0.00 0.08 0.08 69 1013.6
20260905220357 26 135 0.0 0.0 0.00 0.08 0.08 68 1013.7
20260905215413 26 135 1.6 4.8 0.00 0.08 0.08 69 1013.7
20260905214412 26 123 3.2 9.7 0.00 0.08 0.08 68 1013.7
20260905213357 26 116 3.2 9.7 0.00 0.08 0.08 68 1013.7